Météo Nord-Pas-de-Calais   La météo au plus près de chez vous

Station météorologique

Observations météo à St Rambert Cg01 (01384)

01384003 296 m Dernier relevé à 14:18
26.4°C
Vent 8.3 km/h

Journée consultée

Mardi 1 Septembre 2026

Synthèse de la journée

Périodes de référence en UTC

Température maximale

26.5°C

à 14:06

06h 06h

Température minimale

11.5°C

à 07:06

18h 18h

Rafale maximale

25 km/h

à 14:00

00h 00h

Précipitations

0 mm

Cumul quotidien

06h 06h

Graphiques de la journée

Heure locale Réduire

Données détaillées

Relevés météo

Pas de 6 minutes Afficher les relevés infra-horaires
Relevés météo détaillés à St Rambert Cg01 pour le Mardi 1 Septembre 2026
Heure Température °C Vent moyen (raf.), km/h Précipitations mm
14:18 26.4 °C 9 km/h (19 km/h) 0 mm0 mm
14:12 26.3 °C 8 km/h (17 km/h) 0 mm0 mm
14:06 26.5 °C 8 km/h (24 km/h) 0 mm0 mm
14:00 26.1 °C 10 km/h (24 km/h) 0 mm0 mm
13:54 26 °C 10 km/h (18 km/h) 0 mm0 mm
13:48 26.1 °C 7 km/h (17 km/h) 0 mm0 mm
13:42 26.2 °C 5 km/h (14 km/h) 0 mm0 mm
13:36 25.8 °C 7 km/h (14 km/h) 0 mm0 mm
13:30 25.6 °C 8 km/h (15 km/h) 0 mm0 mm
13:24 25.9 °C 8 km/h (18 km/h) 0 mm0 mm
13:18 25.8 °C 8 km/h (18 km/h) 0 mm0 mm
13:12 25.6 °C 9 km/h (15 km/h) 0 mm0 mm
13:06 25.6 °C 8 km/h (16 km/h) 0 mm0 mm
13:00 25.4 °C 8 km/h (18 km/h) 0 mm0 mm
12:54 25.2 °C 9 km/h (18 km/h) 0 mm0 mm
12:48 25 °C 9 km/h (18 km/h) 0 mm0 mm
12:42 25.1 °C 8 km/h (18 km/h) 0 mm0 mm
12:36 24.8 °C 9 km/h (18 km/h) 0 mm0 mm
12:30 24.9 °C 9 km/h (19 km/h) 0 mm0 mm
12:24 24.7 °C 10 km/h (21 km/h) 0 mm0 mm
12:18 24.6 °C 10 km/h (21 km/h) 0 mm0 mm
12:12 24.6 °C 9 km/h (20 km/h) 0 mm0 mm
12:06 24.5 °C 9 km/h (17 km/h) 0 mm0 mm
12:00 24.3 °C 7 km/h (16 km/h) 0 mm0 mm
11:54 24 °C 5 km/h (10 km/h) 0 mm0 mm
11:48 24 °C 4 km/h (9 km/h) 0 mm0 mm
11:42 24 °C 3 km/h (6 km/h) 0 mm0 mm
11:36 23.7 °C 3 km/h (5 km/h) 0 mm0 mm
11:30 23 °C 3 km/h (6 km/h) 0 mm0 mm
11:24 22.5 °C 4 km/h (8 km/h) 0 mm0 mm
11:18 22.3 °C 4 km/h (7 km/h) 0 mm0 mm
11:12 21.9 °C 4 km/h (7 km/h) 0 mm0 mm
11:06 21.4 °C 4 km/h (6 km/h) 0 mm0 mm
11:00 21 °C 4 km/h (6 km/h) 0 mm0 mm
10:54 20.5 °C 4 km/h (6 km/h) 0 mm0 mm
10:48 20.2 °C 4 km/h (6 km/h) 0 mm0 mm
10:42 19.9 °C 3 km/h (5 km/h) 0 mm0 mm
10:36 19.5 °C 3 km/h (5 km/h) 0 mm0 mm
10:30 19.2 °C 3 km/h (5 km/h) 0 mm0 mm
10:24 19 °C 3 km/h (5 km/h) 0 mm0 mm
10:18 18.5 °C 3 km/h (5 km/h) 0 mm0 mm
10:12 18.2 °C 3 km/h (5 km/h) 0 mm0 mm
10:06 18 °C 3 km/h (5 km/h) 0 mm0 mm
10:00 17.5 °C 2 km/h (5 km/h) 0 mm0 mm
09:54 17.1 °C 2 km/h (5 km/h) 0 mm0 mm
09:48 16.9 °C 2 km/h (5 km/h) 0 mm0 mm
09:42 16.5 °C 2 km/h (4 km/h) 0 mm0 mm
09:36 16.2 °C 2 km/h (4 km/h) 0 mm0 mm
09:30 16.3 °C 2 km/h (4 km/h) 0 mm0 mm
09:24 16 °C 2 km/h (5 km/h) 0 mm0 mm
09:18 15.7 °C 2 km/h (5 km/h) 0 mm0 mm
09:12 15.2 °C 2 km/h (4 km/h) 0 mm0 mm
09:06 15 °C 0 km/h (4 km/h) 0 mm0 mm
09:00 14.3 °C 0 km/h (4 km/h) 0 mm0 mm
08:54 14 °C 2 km/h (5 km/h) 0 mm0 mm
08:48 13.7 °C 2 km/h (5 km/h) 0 mm0 mm
08:42 13.3 °C 2 km/h (8 km/h) 0 mm0 mm
08:36 12.8 °C 2 km/h (8 km/h) 0 mm0 mm
08:30 12.4 °C 2 km/h (7 km/h) 0 mm0 mm
08:24 11.9 °C 2 km/h (7 km/h) 0 mm0 mm
08:18 11.8 °C 0 km/h (5 km/h) 0 mm0 mm
08:12 11.7 °C 0 km/h (4 km/h) 0 mm0 mm
08:06 11.7 °C 0 km/h (4 km/h) 0 mm0 mm
08:00 11.7 °C 0 km/h (4 km/h) 0 mm0 mm
07:54 11.7 °C 0 km/h (5 km/h) 0 mm0 mm
07:48 11.7 °C 0 km/h (5 km/h) 0 mm0 mm
07:42 11.7 °C 0 km/h (5 km/h) 0 mm0 mm
07:36 11.7 °C 0 km/h (5 km/h) 0 mm0 mm
07:30 11.6 °C 0 km/h (6 km/h) 0 mm0 mm
07:24 11.6 °C 0 km/h (6 km/h) 0 mm0 mm
07:18 11.6 °C 0 km/h (5 km/h) 0 mm0 mm
07:12 11.6 °C 0 km/h (5 km/h) 0 mm0 mm
07:06 11.5 °C 0 km/h (4 km/h) 0 mm0 mm
07:00 11.6 °C 0 km/h (5 km/h) 0 mm0 mm
06:54 11.6 °C 0 km/h (6 km/h) 0 mm0 mm
06:48 11.6 °C 0 km/h (5 km/h) 0 mm0 mm
06:42 11.6 °C 0 km/h (5 km/h) 0 mm0 mm
06:36 11.6 °C 0 km/h (4 km/h) 0 mm0 mm
06:30 11.7 °C 0 km/h (4 km/h) 0 mm0 mm
06:24 11.7 °C 0 km/h (3 km/h) 0 mm0 mm
06:18 11.8 °C 0 km/h (3 km/h) 0 mm0 mm
06:12 11.8 °C 0 km/h (6 km/h) 0 mm0 mm
06:06 11.8 °C 2 km/h (6 km/h) 0 mm0 mm
06:00 11.9 °C 0 km/h (4 km/h) 0 mm0 mm
05:54 11.9 °C 0 km/h (5 km/h) 0 mm0 mm
05:48 11.9 °C 0 km/h (5 km/h) 0 mm0 mm
05:42 11.9 °C 0 km/h (3 km/h) 0 mm0 mm
05:36 11.9 °C 0 km/h (3 km/h) 0 mm0 mm
05:30 12 °C 0 km/h (3 km/h) 0 mm0 mm
05:24 12.1 °C 0 km/h (3 km/h) 0 mm0 mm
05:18 12.1 °C 0 km/h (3 km/h) 0 mm0 mm
05:12 12.1 °C 0 km/h (4 km/h) 0 mm0 mm
05:06 12.2 °C 0 km/h (4 km/h) 0 mm0 mm
05:00 12.3 °C 0 km/h (5 km/h) 0 mm0 mm
04:54 12.3 °C 3 km/h (5 km/h) 0 mm0 mm
04:48 12.4 °C 2 km/h (5 km/h) 0 mm0 mm
04:42 12.4 °C 0 km/h (5 km/h) 0 mm0 mm
04:36 12.4 °C 0 km/h (5 km/h) 0 mm0 mm
04:30 12.4 °C 0 km/h (4 km/h) 0 mm0 mm
04:24 12.4 °C 0 km/h (6 km/h) 0 mm0 mm
04:18 12.4 °C 0 km/h (6 km/h) 0 mm0 mm
04:12 12.5 °C 0 km/h (3 km/h) 0 mm0 mm
04:06 12.5 °C 0 km/h (3 km/h) 0 mm0 mm
04:00 12.6 °C 0 km/h (3 km/h) 0 mm0 mm
03:54 12.6 °C 0 km/h (2 km/h) 0 mm0 mm
03:48 12.7 °C 0 km/h (4 km/h) 0 mm0 mm
03:42 12.7 °C 0 km/h (4 km/h) 0 mm0 mm
03:36 12.8 °C 0 km/h (3 km/h) 0 mm0 mm
03:30 12.9 °C 0 km/h (3 km/h) 0 mm0 mm
03:24 13 °C 0 km/h (4 km/h) 0 mm0 mm
03:18 13 °C 0 km/h (4 km/h) 0 mm0 mm
03:12 13.1 °C 0 km/h (4 km/h) 0 mm0 mm
03:06 13.1 °C 0 km/h (3 km/h) 0 mm0 mm
03:00 13.2 °C 0 km/h (4 km/h) 0 mm0 mm
02:54 13.2 °C 0 km/h (5 km/h) 0 mm0 mm
02:48 13.2 °C 0 km/h (8 km/h) 0 mm0 mm
02:42 13.2 °C 0 km/h (6 km/h) 0 mm0 mm
02:36 13.2 °C 0 km/h (5 km/h) 0 mm0 mm
02:30 13.3 °C 0 km/h (5 km/h) 0 mm0 mm
02:24 13.3 °C 0 km/h (4 km/h) 0 mm0 mm
02:18 13.4 °C 0 km/h (4 km/h) 0 mm0 mm
02:12 13.4 °C 0 km/h (4 km/h) 0 mm0 mm
02:06 13.5 °C 0 km/h (5 km/h) 0 mm0 mm
02:00 13.6 °C 0 km/h (4 km/h) 0 mm0 mm
01:54 13.7 °C 0 km/h (4 km/h) 0 mm0 mm
01:48 13.8 °C 0 km/h (2 km/h) 0 mm0 mm
01:42 13.9 °C 0 km/h (3 km/h) 0 mm0 mm
01:36 13.9 °C 0 km/h (4 km/h) 0 mm0 mm
01:30 14 °C 2 km/h (5 km/h) 0 mm0 mm
01:24 14.1 °C 0 km/h (4 km/h) 0 mm0 mm
01:18 14.1 °C 0 km/h (4 km/h) 0 mm0 mm
01:12 14.2 °C 0 km/h (4 km/h) 0 mm0 mm
01:06 14.3 °C 0 km/h (4 km/h) 0 mm0 mm
01:00 14.4 °C 2 km/h (6 km/h) 0 mm0 mm
00:54 14.4 °C 0 km/h (6 km/h) 0 mm0 mm
00:48 14.5 °C 0 km/h (6 km/h) 0 mm0 mm
00:42 14.5 °C 0 km/h (5 km/h) 0 mm0 mm
00:36 14.5 °C 0 km/h (2 km/h) 0 mm0 mm
00:30 14.6 °C 0 km/h (4 km/h) 0 mm0 mm
00:24 14.7 °C 0 km/h (4 km/h) 0 mm0 mm
00:18 14.9 °C 0 km/h (3 km/h) 0 mm0 mm
00:12 15 °C 2 km/h (4 km/h) 0 mm0 mm
00:06 15.1 °C 0 km/h (4 km/h) 0 mm0 mm
00:00 15.2 °C 0 km/h (3 km/h) 0 mm0 mm

Données via Météo-France

Relevés météo à St Rambert Cg01

Cette page rassemble les observations de la station de St Rambert Cg01 : température, humidité, vent, précipitations et pression atmosphérique. Les graphiques facilitent le suivi de la journée, tandis que le tableau donne accès aux mesures horaires et infra-horaires disponibles.

Pour replacer ces mesures dans leur contexte, consultez la climatologie de St Rambert Cg01. Retrouvez aussi la carte des observations météo en temps réel.